FW5407 Weather Reports


time (UTC)temp
F
wind
direction
speed
knots
gust
knots
rain 1hr
in
rain 24hr
in
rain mn
in
humidity
%
barometer
mb
20260506132514 0 0.0 0.0 0.00 0.00 0.00 1015.2
20260506132116 0 0.0 0.0 0.00 0.00 0.00 1015.1
20260506131515 0 0.0 0.0 0.00 0.00 0.00 1015.1
20260506131014 0 0.0 0.0 0.00 0.00 0.00 1015.2
20260506130518 0 0.0 0.0 0.00 0.00 0.00 1015.2
20260506130013 50 39 0.0 0.0 0.00 0.00 0.00 90 1015.4
20260506125512 50 39 0.0 0.0 0.00 0.00 0.00 90 1015.3
20260506125011 50 41 0.0 2.6 0.00 0.00 0.00 90 1015.2
20260506124512 50 53 0.0 2.6 0.00 0.00 0.00 90 1015.1
20260506124012 50 18 0.0 3.5 0.00 0.00 0.00 90 1015.2
20260506123512 50 19 0.9 3.5 0.00 0.00 0.00 90 1015.3
20260506123011 50 32 0.9 3.5 0.00 0.00 0.00 90 1015.3
20260506122511 50 26 0.9 4.3 0.00 0.00 0.00 90 1015.2
20260506122110 50 20 0.9 4.3 0.00 0.00 0.00 90 1015.1
20260506121509 50 16 1.7 4.3 0.00 0.00 0.00 90 1015.1
20260506121008 50 34 0.9 1.7 0.00 0.00 0.00 90 1015.0
20260506120507 50 29 0.0 2.6 0.00 0.00 0.00 90 1014.9
20260506120007 50 15 0.9 2.6 0.00 0.00 0.00 90 1014.8
20260506115509 50 26 0.0 2.6 0.00 0.00 0.00 90 1014.8
20260506115006 50 10 0.9 2.6 0.00 0.00 0.00 91 1014.8
20260506114509 50 26 0.0 2.6 0.00 0.00 0.00 90 1014.7
20260506114005 50 17 0.9 2.6 0.00 0.00 0.00 91 1014.7
20260506113507 50 20 0.9 2.6 0.00 0.00 0.00 91 1014.8
20260506113005 50 8 0.0 2.6 0.00 0.00 0.00 91 1014.8
20260506112506 50 11 0.9 3.5 0.00 0.00 0.00 91 1014.7
20260506112104 50 16 0.0 1.7 0.00 0.00 0.00 91 1014.7
20260506111506 50 26 0.0 1.7 0.00 0.00 0.00 91 1014.7
20260506111003 50 23 0.0 1.7 0.00 0.00 0.00 91 1014.7
20260506110507 50 16 0.0 2.6 0.00 0.00 0.00 91 1014.5
20260506110003 50 23 0.9 2.6 0.00 0.00 0.00 91 1014.5
20260506105502 50 18 0.9 3.5 0.00 0.00 0.00 92 1014.4
20260506105005 50 11 0.9 3.5 0.00 0.00 0.00 92 1014.3
20260506104603 50 20 0.9 3.5 0.00 0.00 0.00 92 1014.3
20260506104100 50 29 1.7 4.3 0.00 0.00 0.00 92 1014.3
20260506103600 50 25 0.9 4.3 0.00 0.00 0.00 92 1014.2
20260506103503 50 28 0.9 4.3 0.00 0.00 0.00 92 1014.2
20260506103059 50 24 0.9 3.5 0.00 0.00 0.00 93 1014.2
20260506102559 50 26 1.7 3.5 0.00 0.00 0.00 93 1014.1
20260506102058 49 19 0.0 0.9 0.00 0.00 0.00 93 1014.0
20260506101604 49 19 0.0 0.9 0.00 0.00 0.00 93 1014.0
20260506101058 49 20 0.0 0.9 0.00 0.00 0.00 93 1013.9
20260506100558 49 15 0.0 1.7 0.00 0.00 0.00 93 1013.9
20260506100056 49 16 0.0 1.7 0.00 0.00 0.00 93 1014.0
20260506095559 49 16 0.0 2.6 0.00 0.00 0.00 93 1014.0
20260506095056 49 15 0.9 2.6 0.00 0.00 0.00 93 1013.9
20260506094621 49 6 0.9 3.5 0.00 0.00 0.00 93 1013.9
20260506094054 49 16 0.9 3.5 0.00 0.00 0.00 94 1013.9
20260506093556 49 16 0.9 2.6 0.00 0.00 0.00 93 1013.8
20260506093056 49 20 0.9 3.5 0.00 0.00 0.00 93 1013.9
20260506092552 49 358 0.9 3.5 0.00 0.00 0.00 93 1013.7
20260506092052 49 343 0.9 3.5 0.00 0.00 0.00 93 1013.7
20260506091552 49 15 0.9 3.5 0.00 0.00 0.00 93 1013.7
20260506091054 49 15 0.9 2.6 0.00 0.00 0.00 93 1013.7
20260506090553 49 18 0.9 3.5 0.00 0.00 0.00 94 1013.7
20260506090053 49 23 0.9 3.5 0.00 0.00 0.00 93 1013.6
20260506085553 49 15 0.9 2.6 0.00 0.00 0.00 93 1013.6
20260506085053 49 340 0.0 2.6 0.00 0.00 0.00 93 1013.6
20260506084552 49 23 1.7 2.6 0.00 0.00 0.00 94 1013.6
20260506084056 49 20 0.0 2.6 0.00 0.00 0.00 93 1013.6
20260506083552 49 4 0.0 2.6 0.00 0.00 0.00 93 1013.6
20260506083057 49 308 0.9 2.6 0.00 0.00 0.00 93 1013.6
20260506082555 49 12 0.9 2.6 0.00 0.00 0.00 93 1013.7
20260506082051 49 352 0.9 2.6 0.00 0.00 0.00 93 1013.6
20260506081551 49 350 0.9 2.6 0.00 0.00 0.00 93 1013.6
20260506081049 49 347 0.0 2.6 0.00 0.00 0.00 93 1013.6
20260506080549 49 331 0.0 2.6 0.00 0.00 0.00 93 1013.5
20260506073047 49 347 0.9 3.5 0.00 0.00 0.00 93 1013.2
20260506072545 49 335 0.0 2.6 0.00 0.00 0.00 93 1013.2
20260506072045 50 15 0.0 3.5 0.00 0.00 0.00 92 1013.2
20260506071548 50 349 0.9 3.5 0.00 0.00 0.00 92 1013.2
20260506071048 50 315 0.9 1.7 0.00 0.00 0.00 92 1013.2
20260506070546 50 305 0.9 1.7 0.00 0.00 0.00 92 1013.1
20260506062043 50 338 0.0 2.6 0.00 0.00 0.00 92 1012.9
20260506061514 50 316 0.0 2.6 0.00 0.00 0.00 92 1012.9
20260506061009 50 331 0.9 2.6 0.00 0.00 0.00 91 1012.8
20260506060508 50 340 0.9 2.6 0.00 0.00 0.00 91 1012.8
20260506051010 51 6 1.7 2.6 0.00 0.00 0.00 90 1012.5
20260506050513 51 20 0.9 3.5 0.00 0.00 0.00 90 1012.5
20260506045008 51 18 0.9 2.6 0.00 0.00 0.00 90 1012.2
20260506044607 51 358 1.7 2.6 0.00 0.00 0.00 90 1012.2
20260506044056 51 343 0.9 2.6 0.00 0.00 0.00 89 1012.1
20260506043554 51 12 0.9 4.3 0.00 0.00 0.00 89 1012.1
20260506043054 52 8 0.9 4.3 0.00 0.00 0.00 89 1012.1
20260506042553 52 23 0.9 2.6 0.00 0.00 0.00 89 1012.0
20260506042052 52 26 0.9 2.6 0.00 0.00 0.00 89 1012.0
20260506041553 52 18 0.9 2.6 0.00 0.00 0.00 89 1011.9
20260506041521 52 18 0.9 2.6 0.00 0.00 0.00 89 1011.9
20260506040506 52 23 1.7 3.5 0.00 0.00 0.00 88 1011.9
20260506040005 52 26 1.7 3.5 0.00 0.00 0.00 88 1011.8
20260506035505 52 27 0.9 3.5 0.00 0.00 0.00 88 1011.7
20260506035005 52 36 1.7 3.5 0.00 0.00 0.00 88 1011.6
20260506034501 52 24 0.0 3.5 0.00 0.00 0.00 87 1011.5
20260506034001 53 11 0.9 3.5 0.00 0.00 0.00 87 1011.5
20260506033600 53 325 1.7 3.5 0.00 0.00 0.00 87 1011.6
20260506033501 53 15 1.7 3.5 0.00 0.00 0.00 87 1011.5
20260506033100 53 15 0.9 3.5 0.00 0.00 0.00 86 1011.5
20260506032559 53 340 0.9 4.3 0.00 0.00 0.00 86 1011.6
20260506032101 53 15 1.7 4.3 0.00 0.00 0.00 85 1011.5
20260506031605 53 18 1.7 3.5 0.00 0.00 0.00 85 1011.5
20260506030513 54 20 0.9 2.6 0.00 0.00 0.00 84 1011.4
20260506030012 54 1 0.9 2.6 0.00 0.00 0.00 84 1011.5
20260506025511 54 10 0.0 1.7 0.00 0.00 0.00 84 1011.5
20260506025013 55 319 0.0 1.7 0.00 0.00 0.00 83 1011.5
20260506024517 55 20 0.0 0.9 0.00 0.00 0.00 83 1011.5
20260506024008 55 20 0.0 2.6 0.00 0.00 0.00 82 1011.5
20260506023509 55 18 0.0 2.6 0.00 0.00 0.00 82 1011.5
20260506023006 56 337 0.9 3.5 0.00 0.00 0.00 82 1011.5
20260506022506 56 15 0.0 2.6 0.00 0.00 0.00 82 1011.5
20260506022007 56 20 0.0 0.0 0.00 0.00 0.00 82 1011.5
20260506021506 56 25 0.0 0.0 0.00 0.00 0.00 81 1011.6
20260506020511 57 26 0.0 0.0 0.00 0.00 0.00 81 1011.6
20260506020004 57 30 0.0 0.0 0.00 0.00 0.00 81 1011.6
20260506015504 57 27 0.0 0.0 0.00 0.00 0.00 81 1011.6
20260506015004 57 20 0.0 2.6 0.00 0.00 0.00 80 1011.6
20260506014501 57 26 0.0 3.5 0.00 0.00 0.00 80 1011.6
20260506014001 57 38 0.9 3.5 0.00 0.00 0.00 79 1011.6
20260506013600 58 32 1.7 3.5 0.00 0.00 0.00 79 1011.6
20260506013504 58 20 0.9 3.5 0.00 0.00 0.00 79 1011.6
20260506013100 58 13 0.0 0.0 0.00 0.00 0.00 80 1011.6
20260506012600 58 308 0.0 3.5 0.00 0.00 0.00 80 1011.6
20260506012059 58 18 0.0 3.5 0.00 0.00 0.00 80 1011.6
20260506012005 58 314 0.0 3.5 0.00 0.00 0.00 80 1011.6
20260506011607 58 344 0.9 4.3 0.00 0.00 0.00 80 1011.6
20260506010538 58 27 0.0 2.6 0.00 0.00 0.00 80 1011.6
20260506010043 58 32 0.0 0.0 0.00 0.00 0.00 80 1011.6
20260506005538 58 20 0.0 0.0 0.00 0.00 0.00 80 1011.6
20260506005037 58 81 0.0 0.0 0.00 0.00 0.00 79 1011.6
20260506004538 59 358 0.0 0.0 0.00 0.00 0.00 78 1011.6
20260506004037 59 50 0.0 1.7 0.00 0.00 0.00 77 1011.7
20260506003538 59 5 0.0 2.6 0.00 0.00 0.00 77 1011.7
20260506003038 60 71 0.0 5.2 0.00 0.00 0.00 77 1011.7
20260506002537 60 68 0.0 3.5 0.00 0.00 0.00 75 1011.7
20260506002036 61 297 0.0 2.6 0.00 0.00 0.00 74 1011.6
20260506001536 61 39 0.0 2.6 0.00 0.00 0.00 75 1011.7
20260506000535 62 49 1.7 4.3 0.00 0.00 0.00 72 1011.8
20260506000034 63 50 0.0 0.0 0.00 0.00 0.00 72 1011.9
20260505235534 62 64 0.0 0.0 0.00 0.00 0.00 72 1012.0
20260505235034 63 30 0.0 0.0 0.00 0.00 0.00 71 1012.0
20260505234539 63 82 0.0 0.0 0.00 0.00 0.00 71 1012.0
20260505234034 63 56 0.0 0.9 0.00 0.00 0.00 71 1012.1
20260505233533 63 71 0.0 1.7 0.00 0.00 0.00 71 1012.2
20260505233033 64 60 0.0 2.6 0.00 0.00 0.00 71 1012.2
20260505232534 64 68 0.0 3.5 0.00 0.00 0.00 71 1012.3
20260505232034 64 50 0.9 3.5 0.00 0.00 0.00 70 1012.3
20260505231544 64 52 0.0 1.7 0.00 0.00 0.00 71 1012.3
20260505230538 63 20 1.7 3.5 0.00 0.00 0.00 71 1012.4
20260505230038 63 53 0.0 3.5 0.00 0.00 0.00 73 1012.4
20260505225539 62 58 0.9 6.1 0.00 0.00 0.00 75 1012.4
20260505225038 62 327 1.7 9.6 0.00 0.00 0.00 74 1012.4
20260505224538 63 302 0.9 9.6 0.00 0.00 0.00 73 1012.4
20260505224037 63 53 0.0 5.2 0.00 0.00 0.00 72 1012.5
20260505223536 63 51 1.7 5.2 0.00 0.00 0.00 72 1012.5
20260505223044 63 50 1.7 4.3 0.00 0.00 0.00 73 1012.6
20260505222537 63 302 2.6 5.2 0.00 0.00 0.00 73 1012.7
20260505222037 62 61 0.9 6.1 0.00 0.00 0.00 76 1012.6
20260505221537 62 18 0.9 4.3 0.00 0.00 0.00 75 1012.7
20260505220537 62 1 0.9 4.3 0.00 0.00 0.00 75 1012.7
20260505220040 61 66 0.0 5.2 0.00 0.00 0.00 77 1012.8
20260505215534 61 30 2.6 5.2 0.00 0.00 0.00 75 1012.8
20260505215034 62 299 1.7 3.5 0.00 0.00 0.00 75 1012.8
20260505214544 62 46 0.9 3.5 0.00 0.00 0.00 75 1012.8
20260505214034 62 22 1.7 3.5 0.00 0.00 0.00 76 1012.9
20260505213533 61 34 1.7 4.3 0.00 0.00 0.00 77 1012.8
20260505213035 61 302 0.9 5.2 0.00 0.00 0.00 77 1012.8
20260505212534 61 25 1.7 6.1 0.00 0.00 0.00 77 1012.9
20260505212034 61 28 0.0 3.5 0.00 0.00 0.00 77 1012.9
20260505211534 61 18 0.9 3.5 0.00 0.00 0.00 77 1012.9
20260505210531 60 36 0.0 1.7 0.00 0.00 0.00 80 1013.0
20260505210031 59 36 0.0 2.6 0.00 0.00 0.00 81 1013.0
20260505205533 59 321 0.9 2.6 0.00 0.00 0.00 81 1013.1
20260505205032 59 300 0.0 2.6 0.00 0.00 0.00 80 1013.1
20260505204535 59 28 0.0 2.6 0.00 0.00 0.00 82 1013.2
20260505204131 58 55 0.0 2.6 0.00 0.00 0.00 83 1013.2
20260505203530 58 187 0.0 3.5 0.00 0.00 0.00 82 1013.1
20260505203032 58 13 1.7 3.5 0.00 0.00 0.00 81 1013.1
20260505202530 59 32 0.9 3.5 0.00 0.00 0.00 81 1013.1
20260505202029 59 49 0.0 2.6 0.00 0.00 0.00 81 1013.1
20260505201528 59 44 0.0 3.5 0.00 0.00 0.00 82 1013.0
20260505200528 58 63 0.9 2.6 0.00 0.00 0.00 82 1013.0
20260505200038 58 281 0.9 2.6 0.00 0.00 0.00 83 1013.0
20260505195530 58 311 1.7 2.6 0.00 0.00 0.00 82 1013.1
20260505195027 58 32 1.7 2.6 0.00 0.00 0.00 82 1013.1
20260505194527 58 53 0.9 2.6 0.00 0.00 0.00 83 1013.0
20260505194027 57 5 0.0 2.6 0.00 0.00 0.00 84 1013.1
20260505193527 57 28 0.0 2.6 0.00 0.00 0.00 84 1013.1
20260505193026 57 27 0.0 1.7 0.00 0.00 0.00 85 1013.0
20260505192531 57 330 0.0 1.7 0.00 0.00 0.00 84 1013.1
20260505192027 57 41 0.0 2.6 0.00 0.00 0.00 85 1013.1
20260505191526 57 311 0.0 1.7 0.00 0.00 0.00 85 1013.0
20260505190529 56 46 0.0 2.6 0.00 0.00 0.00 87 1013.1
20260505190036 56 52 0.0 2.6 0.00 0.00 0.00 86 1013.1
20260505185529 56 356 0.0 2.6 0.00 0.00 0.00 87 1013.1
20260505185029 55 181 0.0 3.5 0.00 0.00 0.00 87 1013.1
20260505184528 56 308 0.9 3.5 0.00 0.00 0.00 86 1013.1
20260505184028 56 52 0.0 0.9 0.00 0.00 0.00 87 1013.0
20260505183527 55 65 0.0 2.6 0.00 0.00 0.00 87 1013.0
20260505183031 55 295 0.0 2.6 0.00 0.00 0.00 87 1013.0
20260505182528 55 334 0.9 2.6 0.00 0.00 0.00 86 1013.0
20260505182026 55 44 0.0 0.9 0.00 0.00 0.00 87 1013.0
20260505181528 55 44 0.0 1.7 0.00 0.00 0.00 88 1012.9
20260505180522 55 338 0.0 0.9 0.00 0.00 0.00 87 1012.8
20260505180023 55 47 0.0 2.6 0.00 0.00 0.00 88 1012.9
20260505175522 55 54 0.0 2.6 0.00 0.00 0.00 88 1012.9
20260505175022 55 332 0.0 0.9 0.00 0.00 0.00 88 1012.8
20260505174522 55 47 0.0 0.9 0.00 0.00 0.00 88 1012.9
20260505174024 54 47 0.0 0.9 0.00 0.00 0.00 88 1012.8
20260505173521 54 26 0.0 0.9 0.00 0.00 0.00 88 1012.8
20260505173021 54 32 0.0 0.9 0.00 0.00 0.00 89 1012.8
20260505172520 54 64 0.0 0.0 0.00 0.00 0.00 89 1012.8
20260505172021 54 64 0.0 0.0 0.00 0.00 0.00 90 1012.7
20260505171524 54 63 0.0 0.9 0.00 0.00 0.00 90 1012.7
20260505170525 54 33 0.0 0.9 0.00 0.00 0.00 91 1012.6
20260505170026 53 34 0.0 0.9 0.00 0.00 0.00 91 1012.6
20260505165525 53 22 0.0 0.0 0.00 0.00 0.00 91 1012.7
20260505165025 53 58 0.0 0.0 0.00 0.00 0.00 92 1012.6
20260505164525 53 58 0.0 0.0 0.00 0.00 0.00 92 1012.6
20260505164028 53 58 0.0 0.0 0.00 0.00 0.00 92 1012.6
20260505163528 53 52 0.0 0.0 0.00 0.00 0.00 93 1012.6
20260505163024 52 53 0.0 0.0 0.00 0.00 0.00 93 1012.6
20260505162524 52 52 0.0 0.0 0.00 0.00 0.00 93 1012.7
20260505162024 52 53 0.0 0.0 0.00 0.00 0.00 93 1012.6
20260505161523 52 53 0.0 0.0 0.00 0.00 0.00 93 1012.7
20260505160520 52 55 0.0 0.0 0.00 0.00 0.00 93 1012.6
20260505153017 52 26 0.0 1.7 0.00 0.00 0.00 93 1012.4
20260505152517 52 23 0.0 1.7 0.00 0.00 0.00 93 1012.4
20260505152018 52 23 0.0 1.7 0.00 0.00 0.00 93 1012.3
20260505151517 52 23 0.0 1.7 0.00 0.00 0.00 93 1012.3
20260505150516 51 23 0.0 1.7 0.00 0.00 0.00 93 1012.2
20260505140505 0 0.0 0.0 0.00 0.00 0.00 1011.5